Regional Weather Roundup
Issued by NWS

Home | Current Version | Previous Version | Graphics & Text | Print | Product List | Glossary On
Versions: 1 2 3 4 5 6 7 8 9 10 11 12 13 14 15 16 17 18 19 20 21 22 23 24 25 26 27 28 29 30 31 32 33 34 35 36 37 38 39 40 41 42 43 44 45 46 47 48 49 50
000
ASUS43 KDTX 282210
RWRMI
MICHIGAN HOURLY REGIONAL WEATHER ROUNDUP
NATIONAL WEATHER SERVICE DETROIT/PONTIAC MI
600 PM EDT WED SEP 28 2016

NOTE: "FAIR" INDICATES FEW OR NO CLOUDS BELOW 12,000 FEET WITH NO
SIGNIFICANT WEATHER AND/OR OBSTRUCTION TO VISIBILITY.

MIZ047>049-052>055-059>063-066>070-074>076-081>083-282300-
SOUTHEAST LOWER MICHIGAN

CITY           SKY/WX    TMP DP  RH WIND       PRES   REMARKS
ADRIAN         CLOUDY    59  54  83 E10       29.94R
ALMA           CLOUDY    60  57  89 N13       30.03R
ANN ARBOR      CLOUDY    59  56  89 NE7       29.95R
BAD AXE        PTSUNNY   63  59  85 NE8       30.03R
CARO           PTSUNNY   63  55  77 NE5       30.00R
DETROIT CITY   CLOUDY    61  59  93 N5        29.97R
DETROIT        LGT RAIN  60  56  86 NE10      29.96R
FLINT          CLOUDY    60  53  77 CALM      30.00R
GROSSE ILE     LGT RAIN  60  56  87 E9        29.95R
HILLSDALE      CLOUDY    54  52  94 NE5       29.93R
HOWELL         CLOUDY    57  55  92 NE6       29.98R

CITY           SKY/WX    TMP DP  RH WIND       PRES   REMARKS
JACKSON        CLOUDY    57  56  96 NE8       29.96R
LAMBERTVILLE   CLOUDY    62  55  77 E5        29.93R
LANSING        CLOUDY    57  51  80 NE9       30.00R
LAPEER         CLOUDY    64  56  76 CALM      30.00R
MASON          CLOUDY    56  54  92 NE6       29.98R
MONROE         CLOUDY    60  58  92 NW6       29.93R
MT. CLEMENS    CLOUDY    66  56  70 CALM      29.96R
PONTIAC        CLOUDY    60  55  83 NE3       29.98R
PORT HURON     CLOUDY    63  59  88 CALM      29.99R
TRI CITIES     MOSUNNY   61  57  87 NE10      30.04R
MIDLAND        FAIR      59  56  89 NE12      30.03R
TROY           LGT RAIN  61  57  85 N6        29.99R
SAGINAW HB     PTSUNNY   63  55  77 N8        30.01R
$$
MIZ043>046-050>051-056>058-064>065-071>073-077>080-282300-
SOUTHWEST LOWER MICHIGAN

CITY           SKY/WX    TMP DP  RH WIND       PRES   REMARKS
BATTLE CREEK   CLOUDY    56  53  90 NE8       29.97R
BENTON HARBOR  CLOUDY    61  52  72 VRB3      29.97R
BIG RAPIDS     LGT RAIN  59  53  81 E6        30.05R
COLDWATER      CLOUDY    55  51  86 NE10      29.94R
FREMONT        RAIN      58  53  84 NE7       30.04R
HOLLAND        LGT RAIN  59  50  72 VRB7      30.01R
GRAND RAPIDS   LGT RAIN  57  52  83 NE8       30.00R
IONIA          DRIZZLE   57  51  80 NE13      30.00R
KALAMAZOO      LGT RAIN  58  48  69 NE7       29.97R
LUDINGTON      CLOUDY    64  51  61 N9G16     30.05R
MARSHALL       CLOUDY    56  55  97 N3        29.95R
MOUNT PLEASANT RAIN      58  55  90 N9G17     30.03R
MUSKEGON       LGT RAIN  61  49  64 NE12      30.02R
SOUTH HAVEN    CLOUDY    60  54  79 N6        29.98R
$$
MIZ016>042-282300-
NORTHERN LOWER MICHIGAN

CITY           SKY/WX    TMP DP  RH WIND       PRES   REMARKS
ALPENA         MOSUNNY   66  53  63 NE12      30.13R
BEAVER ISLAND  SUNNY     63  54  72 NE6       30.17R
BELLAIRE       CLOUDY    64  51  62 N8        30.12R
CADILLAC       CLOUDY    63  49  61 NE14      30.09R
CHARLEVOIX     HAZE      65  50  57 E9        30.17R VSB 1/2
FRANKFORT      SUNNY     65  51  61 N6        30.10R
GAYLORD        CLOUDY    62  49  62 NE10      30.13R
GRAYLING       CLOUDY    63  52  67 NE12      30.12R
HARBOR SPRINGS SUNNY     64  49  58 NE8       30.14R HAZE
HOUGHTON LAKE  CLOUDY    61  49  64 NE7       30.11R
MANISTEE       MOSUNNY   65  50  58 N9G17     30.08R
OSCODA         CLOUDY    63  55  77 NE5       30.07R
PELLSTON       SUNNY     66  49  54 NE7       30.15R
ROGERS CITY    SUNNY     65  55  70 NE5       30.15R
TRAVERSE CITY  PTSUNNY   67  51  56 NE13G22   30.09R
$$
MIZ007>008-015-282300-
EASTERN UPPER MICHIGAN

CITY           SKY/WX    TMP DP  RH WIND       PRES   REMARKS
KINROSS        MOSUNNY   66  49  54 NE6       30.18R
MACKINAC ISLAN SUNNY     64  54  68 NE5       30.15R
NEWBERRY       SUNNY     63  53  70 NE5       30.18R
S. S. MARIE    SUNNY     69  49  48 E3        30.17R
MUNISING         N/A     61  56  83 NE15      30.20R
$$
MIZ004>006-011>014-085-282300-
CENTRAL UPPER MICHIGAN

CITY           SKY/WX    TMP DP  RH WIND       PRES   REMARKS
MANISTIQUE     MOSUNNY   64  53  68 NE5       30.17R
ESCANABA       SUNNY     64  52  64 N6        30.17R
MENOMINEE        N/A    N/A N/A N/A MISG        N/A
SAWYER-GWINN   PTSUNNY   55  50  82 NE14      30.22R
$$
MIZ001>003-009>011-084-282300-
WESTERN UPPER MICHIGAN

CITY           SKY/WX    TMP DP  RH WIND       PRES   REMARKS
IRON MOUNTAIN  MOSUNNY   61  50  67 NE9       30.18R
HOUGHTON       CLOUDY    57  48  72 NE7       30.26R
COPPER HARBOR    N/A     58  53  84 E12G17    30.25R
IRONWOOD       CLOUDY    56  53  90 N6        30.27R
$$

ABBREVIATIONS USED IN REMARKS
   TC - TEMPERATURE IN CELSIUS
  WCI - WIND CHILL INDEX
   HX - HEAT INDEX
  VSB - VISIBILITY





USA.gov is the U.S. government's official web portal to all federal, state and local government web resources and services.